Radioactive Concentration measured by Seawater Radiation Monitor near Fukushima Daiichi Nuclear Power Station
Date,Time,Cs137(Bq/L),Cs134(Bq/L),Total β(Bq/L)
2017/01/13,00:00,0.62,0.097,10
2017/01/13,00:10,0.64,0.089,9.6
2017/01/13,00:20,0.72,0.063,ND
2017/01/13,00:30,0.71,0.062,9.0
2017/01/13,00:40,0.70,0.073,11
2017/01/13,00:50,0.73,0.055,13
2017/01/13,01:00,0.72,0.051,15
2017/01/13,01:10,0.67,0.064,17
2017/01/13,01:20,0.57,0.093,17
2017/01/13,01:30,0.57,0.094,17
2017/01/13,01:40,0.56,0.097,14
2017/01/13,01:50,0.58,0.094,15
2017/01/13,02:00,0.59,0.10,13
2017/01/13,02:10,0.64,0.088,14
2017/01/13,02:20,0.62,0.10,15
2017/01/13,02:30,0.65,0.10,15
2017/01/13,02:40,0.66,0.092,16
2017/01/13,02:50,0.63,0.11,16
2017/01/13,03:00,0.63,0.11,16
2017/01/13,03:10,0.64,0.11,16
2017/01/13,03:20,0.75,0.071,14
2017/01/13,03:30,0.74,0.069,14
2017/01/13,03:40,0.75,0.076,15
2017/01/13,03:50,0.77,0.062,14
2017/01/13,04:00,0.78,0.058,14
2017/01/13,04:10,0.65,0.090,13
2017/01/13,04:20,0.65,0.086,16
2017/01/13,04:30,0.64,0.094,15
2017/01/13,04:40,0.62,0.10,15
2017/01/13,04:50,0.61,0.11,17
2017/01/13,05:00,0.59,0.12,16
2017/01/13,05:10,0.58,0.14,14
2017/01/13,05:20,0.58,0.14,12
2017/01/13,05:30,0.58,0.14,10
2017/01/13,05:40,0.58,0.13,9.3
2017/01/13,05:50,0.58,0.13,ND
2017/01/13,06:00,0.60,0.12,10
2017/01/13,06:10,0.61,0.11,12
2017/01/13,06:20,0.61,0.10,16
2017/01/13,06:30,0.65,0.096,18
2017/01/13,06:40,0.64,0.089,18
2017/01/13,06:50,0.64,0.086,19
2017/01/13,07:00,0.64,0.097,18
2017/01/13,07:10,0.67,0.094,17
2017/01/13,07:20,0.67,0.10,12
2017/01/13,07:30,0.68,0.095,13
2017/01/13,07:40,0.70,0.11,15
2017/01/13,07:50,0.71,0.11,13
2017/01/13,08:00,0.72,0.12,12
2017/01/13,08:10,0.74,0.12,13
2017/01/13,08:20,0.76,0.12,15
2017/01/13,08:30,0.78,0.14,14
2017/01/13,08:40,0.83,0.12,14
2017/01/13,08:50,0.85,0.13,14
2017/01/13,09:00,1.0,0.088,14
2017/01/13,09:10,1.0,0.093,14
2017/01/13,09:20,1.0,0.092,12
2017/01/13,09:30,1.0,0.090,12
2017/01/13,09:40,1.0,0.098,12
2017/01/13,09:50,0.90,0.13,13
2017/01/13,10:00,0.88,0.13,14
2017/01/13,10:10,0.87,0.13,16
2017/01/13,10:20,0.85,0.13,18
2017/01/13,10:30,0.85,0.13,18
2017/01/13,10:40,0.84,0.14,17
2017/01/13,10:50,0.84,0.14,16
2017/01/13,11:00,0.87,0.12,17
2017/01/13,11:10,0.82,0.13,13
2017/01/13,11:20,0.83,0.12,12
2017/01/13,11:30,0.81,0.12,15
2017/01/13,11:40,0.80,0.11,16
2017/01/13,11:50,0.76,0.11,14
2017/01/13,12:00,0.72,0.11,13
2017/01/13,12:10,0.71,0.11,14
2017/01/13,12:20,0.69,0.10,16
2017/01/13,12:30,0.66,0.095,14
2017/01/13,12:40,0.64,0.090,14
2017/01/13,12:50,0.62,0.086,14
2017/01/13,13:00,0.62,0.085,16
2017/01/13,13:10,0.60,0.087,18
2017/01/13,13:20,0.58,0.092,18
2017/01/13,13:30,0.58,0.090,13
2017/01/13,13:40,0.54,0.11,14
2017/01/13,13:50,0.55,0.10,15
2017/01/13,14:00,0.54,0.099,13
2017/01/13,14:10,0.52,0.10,12
2017/01/13,14:20,0.54,0.099,9.6
2017/01/13,14:30,0.55,0.097,11
2017/01/13,14:40,0.56,0.089,10
2017/01/13,14:50,0.69,0.051,ND
2017/01/13,15:00,0.60,0.085,ND
2017/01/13,15:10,0.62,0.074,ND
2017/01/13,15:20,0.61,0.077,9.5
2017/01/13,15:30,0.60,0.081,9.7
2017/01/13,15:40,0.61,0.077,8.8
2017/01/13,15:50,0.59,0.089,12
2017/01/13,16:00,0.59,0.094,12
2017/01/13,16:10,0.58,0.11,13
2017/01/13,16:20,0.57,0.10,14
2017/01/13,16:30,0.57,0.10,16
2017/01/13,16:40,0.58,0.11,16
2017/01/13,16:50,0.60,0.099,16
2017/01/13,17:00,0.58,0.10,16
2017/01/13,17:10,0.58,0.10,12
2017/01/13,17:20,0.61,0.095,11
2017/01/13,17:30,0.58,0.095,11
2017/01/13,17:40,0.57,0.11,9.9
2017/01/13,17:50,0.57,0.079,ND
2017/01/13,18:00,0.58,0.10,ND
2017/01/13,18:10,0.61,0.072,ND
2017/01/13,18:20,0.57,0.078,ND
2017/01/13,18:30,0.58,0.089,ND
2017/01/13,18:40,0.59,0.079,ND
2017/01/13,18:50,0.62,0.068,ND
2017/01/13,19:00,0.59,0.072,11
2017/01/13,19:10,0.60,0.072,9.5
2017/01/13,19:20,0.61,0.076,11
2017/01/13,19:30,0.56,0.089,11
2017/01/13,19:40,0.56,0.080,16
2017/01/13,19:50,0.55,0.081,16
2017/01/13,20:00,0.67,0.049,14
2017/01/13,20:10,0.65,0.050,15
2017/01/13,20:20,0.55,0.093,15
2017/01/13,20:30,0.57,0.092,14
2017/01/13,20:40,0.57,0.098,11
2017/01/13,20:50,0.59,0.093,10
2017/01/13,21:00,0.57,0.10,10
2017/01/13,21:10,0.57,0.11,12
2017/01/13,21:20,0.59,0.10,14
2017/01/13,21:30,0.65,0.070,16
2017/01/13,21:40,0.61,0.097,18
2017/01/13,21:50,0.61,0.099,17
2017/01/13,22:00,0.60,0.10,17
2017/01/13,22:10,0.61,0.089,12
2017/01/13,22:20,0.62,0.084,11
2017/01/13,22:30,0.60,0.088,ND
2017/01/13,22:40,0.61,0.087,ND
2017/01/13,22:50,0.61,0.091,ND
2017/01/13,23:00,0.64,0.096,ND
2017/01/13,23:10,0.64,0.10,ND
2017/01/13,23:20,0.63,0.11,9.2
2017/01/13,23:30,0.64,0.11,11
2017/01/13,23:40,0.62,0.12,11
2017/01/13,23:50,0.66,0.11,13
